STARLINK-34176, 64104

Orbit data source: Space-Track

STARLINK-34176, 64104 is a payload satellite owned by SpaceX/Seattle (US) in LEO that was launched on Fri, 23 May 2025 UTC via an FALCON 9 launch vehicle from the Air Force Western Test Range (AFWTR). Payload-class satellites include a variety of spacecraft equipped with specific instruments for various scientific and technological missions. These include communications satellites like Starlink; space stations such as the ISS; scientific satellites like the Hubble; Earth observation satellites from companies like Planet Labs, Umbra, and HawkEye 360; GPS; miniature CubeSats for education and research; and military/defense satellites.

Loading next visibility...
Identifier
64104, 2025-110J
Orbit
LEO
Country
Flag of USUS
Related business
Manufacturer
SpaceX/Seattle
Mission
Operational Commercial Communications
Bus & Motor
STARLINK V2MO, Unknown motor
Mass
575 kg wet, ~530 kg dry
Launch date (UTC)
2025-05-23 (1 year ago)
Launch vehicle
FALCON 9
Launch site
Air Force Western Test Range (AFWTR)
Object type
Payload
Rocket body
Debris
Shape & HBR
Box + 2 Pan, 17.7 m
Radar Cross Section
36.964 m², Large (>1 m²)

Expand to show TLE details & history
Last TLE update: 1 day ago

TLE from 1 day ago
0 STARLINK-34176
1 64104U 25110J   26170.61069766  .00014777  00000-0  50995-3 0  9998
2 64104  53.1601 273.5954 0001261  81.6072 278.5071 15.30205331 61484
Epoch: 2026-06-19T14:39Z
TLE epoch observation values (Epoch: 2026-06-19T14:39:24.277Z)
Latitude
-0.0001°
Longitude
145.90698°
Altitude
475.971 km
Speed
7.629 km/s
True Right ascension
18h 14m 22s
True Declination
0° 00' 00"
Sunlit
Object was in full shadow at epoch
Visualization orbit readout
Latitude
Unknown
Longitude
Unknown
Altitude
Unknown
Speed
Unknown
Apparent Right ascension
Unknown
Apparent Declination
Unknown
Sunlit
N/A
Visualization observer readout
Local Sidereal Time
07:14:17
Azimuth
Unknown
Elevation
Unknown
Doppler factor
Unknown
Orbital elements
Apogee altitude
476.32 km
Perigee altitude
474.591 km
Semi-major axis
6,853.593 km
Eccentricity
0.00013
Inclination
53.1601°
RAAN
273.5954°
Arg. of periapsis
81.6072°
True anomaly
278.49281°
Mean anomaly
278.5071°
Eccentric anomaly
278.49995°
Mean motion
3.8253 °/min
Orbital period
94.11 mins
BSTAR
0.00050995
Loading maneuver chart data...
Computing Atmospheric mass density...
Loading historical data...
Loading historical data...
Loading historical data...
Loading historical data...
Loading historical data...
Loading historical data...
Loading historical data...

Documentation

Showing up to 5 results
|